Weather History for KABI - October, 2012

Change the Weather History Date:

Wednesday, October 3, 2012

  Actual Average Record
Temperature  
Mean Temperature 70 °F 70 °F  
Max Temperature 83 °F 81 °F 100 °F (1951)
Min Temperature 57 °F 58 °F 39 °F (1975)
Degree Days  
Heating Degree Days 0 1  
Month to date heating degree days 0 3  
Since 1 July heating degree days 6 14  
Cooling Degree Days 5 6  
Month to date cooling degree days 11 19  
Year to date cooling degree days 2884 2290  
Growing Degree Days 20 (Base 50)    
Moisture  
Dew Point 52 °F    
Average Humidity 55    
Maximum Humidity 72    
Minimum Humidity 37    
Precipitation  
Precipitation 0.00 in 0.09 in 4.99 in (1959)
Month to date precipitation 0.00 0.26  
Year to date precipitation 22.14 19.46  
Sea Level Pressure  
Sea Level Pressure 29.89 in    
Wind  
Wind Speed 13 mph (SSE)    
Max Wind Speed 21 mph    
Max Gust Speed 32 mph    
Visibility 10 miles    
Events      
T = Trace of Precipitation, MM = Missing Value Source: NWS Daily Summary

Daily Weather History Graph

Daily Weather History Graph

Search for Another Location

Airport or City:

Trip Planner

Search our weather history database for the weather conditions in past years. The results will help you decide how hot, cold, wet, or windy it might be!

Date:

Astronomy

Oct. 03, 2012 Rise Set
Actual Time 7:34 AM CDT 7:20 PM CDT
Civil Twilight 7:09 AM CDT 7:44 PM CDT
Nautical Twilight 6:41 AM CDT 8:13 PM CDT
Astronomical Twilight 6:12 AM CDT 8:41 PM CDT
Moon 9:27 PM CDT (10/3) 10:45 AM CDT (10/3)
Length of Visible Light 12h 34m
Length of Day
11h 45m
Waning Gibbous, 88% of the Moon is Illuminated
Oct 3
Waning Gibbous
Oct 8
Last Quarter
Oct 15
New
Oct 21
First Quarter
Oct 29
Full

Hourly Weather History & Observations

Time (CDT) Temp. Heat Index Dew Point Humidity Pressure Visibility Wind Dir Wind Speed Gust Speed Precip Events Conditions
12:52 AM 57.9 °F - 48.9 °F 72% 29.92 in 10.0 mi SSE 6.9 mph - N/A   Clear
1:52 AM 57.9 °F - 48.9 °F 72% 29.91 in 10.0 mi SSE 6.9 mph - N/A   Clear
2:52 AM 57.9 °F - 48.9 °F 72% 29.91 in 10.0 mi SSE 6.9 mph - N/A   Clear
3:52 AM 57.9 °F - 48.9 °F 72% 29.90 in 10.0 mi South 6.9 mph - N/A   Clear
4:52 AM 60.1 °F - 48.9 °F 67% 29.88 in 10.0 mi SSE 9.2 mph - N/A   Clear
5:52 AM 59.0 °F - 50.0 °F 72% 29.90 in 10.0 mi South 8.1 mph - N/A   Clear
6:52 AM 60.1 °F - 50.0 °F 69% 29.91 in 10.0 mi South 9.2 mph - N/A   Clear
7:52 AM 60.1 °F - 50.0 °F 69% 29.91 in 10.0 mi South 11.5 mph - N/A   Clear
8:52 AM 64.0 °F - 51.1 °F 63% 29.93 in 10.0 mi South 9.2 mph - N/A   Clear
9:52 AM 69.1 °F - 51.1 °F 53% 29.93 in 10.0 mi South 13.8 mph - N/A   Clear
10:52 AM 73.0 °F - 51.1 °F 46% 29.93 in 10.0 mi South 18.4 mph 24.2 mph N/A   Clear
11:52 AM 75.9 °F - 52.0 °F 43% 29.92 in 10.0 mi South 17.3 mph 23.0 mph N/A   Clear
12:52 PM 78.1 °F - 53.1 °F 42% 29.91 in 10.0 mi South 12.7 mph - N/A   Clear
1:52 PM 80.1 °F 79.9 °F 53.1 °F 39% 29.88 in 10.0 mi South 16.1 mph - N/A   Clear
2:52 PM 81.0 °F 80.5 °F 54.0 °F 39% 29.86 in 10.0 mi South 17.3 mph 23.0 mph N/A   Clear
3:52 PM 82.0 °F 81.3 °F 54.0 °F 38% 29.85 in 10.0 mi SSE 15.0 mph 24.2 mph N/A   Clear
4:52 PM 82.9 °F 82.0 °F 55.0 °F 38% 29.84 in 10.0 mi South 12.7 mph 21.9 mph N/A   Clear
5:52 PM 82.0 °F 81.3 °F 54.0 °F 38% 29.84 in 10.0 mi SSE 16.1 mph - N/A   Clear
6:52 PM 79.0 °F - 55.0 °F 44% 29.85 in 10.0 mi SSE 12.7 mph - N/A   Clear
7:52 PM 73.9 °F - 55.9 °F 53% 29.86 in 10.0 mi SE 12.7 mph - N/A   Clear
8:52 PM 73.9 °F - 55.9 °F 53% 29.86 in 10.0 mi SSE 16.1 mph - N/A   Clear
9:52 PM 72.0 °F - 55.9 °F 57% 29.88 in 10.0 mi SSE 11.5 mph - N/A   Clear
10:52 PM 71.1 °F - 55.9 °F 59% 29.89 in 10.0 mi SSE 12.7 mph - N/A   Clear
11:52 PM 71.1 °F - 55.9 °F 59% 29.89 in 10.0 mi South 15.0 mph - N/A   Clear